Weather reports worldwide

Advertisment
Phoenix, az, United States of America (2072126): temperature & dewpoint: 15.05.2019 07:00:00 - 21.05.2019 07:00:00 (MST)Phoenix, az, United States of America (2072126): wind speed & gusts: 15.05.2019 07:00:00 - 21.05.2019 07:00:00 (MST)Phoenix, az, United States of America (2072126): wind direction: 15.05.2019 07:00:00 - 21.05.2019 07:00:00 (MST)Phoenix, az, United States of America (2072126): reduced air pressure: 15.05.2019 07:00:00 - 21.05.2019 07:00:00 (MST)Phoenix, az, United States of America (2072126): visibility: 15.05.2019 07:00:00 - 21.05.2019 07:00:00 (MST)Phoenix, az, United States of America (2072126): precipitation: 15.05.2019 07:00:00 - 21.05.2019 07:00:00 (MST)
Date & Time tt [°C] td [°C] ff [km/h] ff [kn] fx [km/h] fx [kn] dd ppp [hPa] vv [km] rr [mm]
21.05.2019 07:00:00 13,9 4,4 8 4 - - E 1009,2 16 -
21.05.2019 06:00:00 9,4 4,4 0 0 - - N 1009,1 16 -
21.05.2019 05:00:00 9,4 4,4 0 0 - - N 1008,7 16 -
21.05.2019 04:00:00 11,7 5,0 0 0 - - N 1008,9 16 -
21.05.2019 03:00:00 13,3 4,4 11 6 - - SSE 1008,9 16 -
21.05.2019 02:00:00 12,8 5,0 0 0 - - N 1009,1 16 -
21.05.2019 01:00:00 14,4 3,9 9 5 - - SE 1008,8 16 -
21.05.2019 00:00:00 15,0 2,8 5 3 - - E 1008,9 16 -
20.05.2019 23:00:00 15,0 2,8 11 6 - - E 1008,7 16 -
20.05.2019 22:00:00 16,1 2,2 16 9 - - E 1008,8 16 -
20.05.2019 21:00:00 17,8 0,6 5 3 - - - 1008,0 16 -
20.05.2019 20:00:00 18,3 0,0 8 4 - - NW 1007,7 16 -
20.05.2019 19:00:00 20,6 -1,7 22 12 - - W 1006,7 16 -
20.05.2019 18:00:00 20,6 -1,1 24 13 - - W 1006,5 16 -
20.05.2019 17:00:00 20,6 0,0 22 12 - - W 1006,0 16 -
20.05.2019 16:00:00 20,6 1,7 18 10 - - SW 1005,9 16 -
20.05.2019 15:00:00 17,8 5,6 5 3 - - S 1006,4 16 1,0
20.05.2019 14:00:00 16,1 5,6 16 9 - - NNW 1006,9 8 1,0
20.05.2019 13:00:00 15,0 6,1 0 0 55 30 N 1007,0 16 0,3
20.05.2019 12:00:00 18,3 0,6 18 10 - - SSW 1006,5 16 -
20.05.2019 11:00:00 19,4 2,8 18 10 - - SW 1006,4 16 -
20.05.2019 10:00:00 16,7 2,8 18 10 - - S 1006,8 16 -
20.05.2019 09:00:00 16,1 2,8 18 10 - - SW 1006,7 16 -
20.05.2019 08:00:00 14,4 2,8 22 12 - - SW 1006,4 16 -
20.05.2019 07:00:00 14,4 2,8 18 10 - - SSW 1005,9 16 -
20.05.2019 06:00:00 13,9 2,2 21 11 - - SW 1005,1 16 -
20.05.2019 05:00:00 14,4 1,1 18 10 - - SW 1004,6 16 -
20.05.2019 04:00:00 15,6 1,1 21 11 - - SW 1004,3 16 -
20.05.2019 03:00:00 16,7 1,1 16 9 - - SW 1004,0 16 -
20.05.2019 02:00:00 18,3 3,3 22 12 - - WSW 1004,1 10 -
20.05.2019 01:00:00 19,4 3,3 18 10 - - SW 1004,4 16 -
20.05.2019 00:00:00 20,0 3,3 18 10 - - SW 1004,9 16 -
19.05.2019 23:00:00 20,6 5,0 18 10 - - SSW 1005,0 16 -
19.05.2019 22:00:00 21,7 4,4 16 9 - - WSW 1005,1 16 -
19.05.2019 21:00:00 21,1 5,0 5 3 - - NW 1004,5 16 -
19.05.2019 20:00:00 21,1 5,6 9 5 - - NW 1004,3 16 -
19.05.2019 19:00:00 21,7 6,7 18 10 - - NW 1004,4 16 -
19.05.2019 18:00:00 22,8 6,7 26 14 - - WNW 1004,2 16 -
19.05.2019 17:00:00 25,0 2,2 24 13 - - WSW 1004,0 16 -
19.05.2019 16:00:00 25,0 0,6 29 16 - - SW 1004,6 16 0,0
19.05.2019 15:00:00 24,4 0,0 29 16 - - SW 1005,7 16 0,0
19.05.2019 14:00:00 24,4 -0,6 26 14 - - SW 1006,4 16 -
19.05.2019 13:00:00 23,9 0,0 21 11 - - W 1006,9 16 -
19.05.2019 12:00:00 24,4 0,0 16 9 - - SW 1007,3 16 -
19.05.2019 11:00:00 22,8 0,6 9 5 - - - 1007,5 16 -
19.05.2019 10:00:00 21,1 0,6 8 4 - - - 1007,5 16 -
19.05.2019 09:00:00 21,1 1,7 9 5 - - SE 1007,9 16 -
19.05.2019 08:00:00 20,0 2,2 9 5 - - ESE 1007,9 16 -
19.05.2019 07:00:00 19,4 0,6 11 6 - - E 1007,3 16 -
19.05.2019 06:00:00 19,4 -1,1 13 7 - - SE 1007,5 16 -
19.05.2019 05:00:00 19,4 0,0 9 5 - - ESE 1006,6 16 -
19.05.2019 04:00:00 20,0 0,6 5 3 - - SSW 1007,0 16 -
19.05.2019 03:00:00 20,6 0,6 9 5 - - SW 1006,6 16 -
19.05.2019 02:00:00 21,1 0,6 13 7 - - SW 1006,5 16 -
19.05.2019 01:00:00 22,2 0,0 16 9 - - SW 1006,9 16 -
19.05.2019 00:00:00 20,6 -2,8 8 4 - - SE 1007,4 16 -
18.05.2019 23:00:00 22,2 -3,3 5 3 - - - 1007,3 16 -
18.05.2019 22:00:00 23,3 -3,3 8 4 - - SSE 1007,6 16 -
18.05.2019 21:00:00 24,4 -3,9 0 0 - - N 1007,3 16 -
18.05.2019 20:00:00 25,6 -4,4 9 5 - - SW 1007,4 16 -
18.05.2019 19:00:00 26,7 -5,6 13 7 - - SW 1007,4 16 -
18.05.2019 18:00:00 27,2 -5,0 16 9 - - SSW 1007,8 16 -
18.05.2019 17:00:00 27,8 -5,0 16 9 - - SW 1008,2 16 -
18.05.2019 16:00:00 27,2 -4,4 21 11 - - SW 1008,1 16 -
18.05.2019 15:00:00 27,8 -3,9 13 7 - - SW 1008,7 16 -
18.05.2019 14:00:00 27,2 -4,4 15 8 - - WSW 1009,4 16 -
18.05.2019 13:00:00 26,7 -3,9 15 8 - - SSW 1009,9 16 -
18.05.2019 12:00:00 25,6 -3,9 8 4 - - SSW 1010,4 16 -
18.05.2019 11:00:00 24,4 -3,9 11 6 - - S 1010,3 16 -
18.05.2019 10:00:00 23,3 -2,2 13 7 - - SSW 1010,5 16 -
18.05.2019 09:00:00 21,1 -1,7 9 5 - - SW 1010,5 16 -
18.05.2019 08:00:00 19,4 -1,7 5 3 - - SSW 1010,4 16 -
18.05.2019 07:00:00 17,8 -1,1 0 0 - - N 1010,1 16 -
18.05.2019 06:00:00 13,9 -2,2 9 5 - - NE 1009,7 16 -
18.05.2019 05:00:00 13,3 -2,8 5 3 - - NNE 1009,5 16 -
18.05.2019 04:00:00 16,1 -3,3 11 6 - - NE 1009,4 16 -
18.05.2019 03:00:00 15,6 -3,3 8 4 - - N 1009,1 16 -
18.05.2019 02:00:00 15,6 -3,3 11 6 - - N 1009,2 16 -
18.05.2019 01:00:00 17,8 -3,3 5 3 - - N 1009,2 16 -
18.05.2019 00:00:00 18,3 -3,3 0 0 - - N 1009,2 16 -
17.05.2019 23:00:00 18,9 -3,9 9 5 - - WNW 1008,8 16 -
17.05.2019 22:00:00 20,6 -3,9 8 4 - - NW 1008,9 16 -
17.05.2019 21:00:00 21,7 -4,4 9 5 - - NW 1008,7 16 -
17.05.2019 20:00:00 22,8 -4,4 15 8 - - NW 1008,1 16 -
17.05.2019 19:00:00 24,4 -3,3 22 12 - - W 1007,7 16 -
17.05.2019 18:00:00 25,0 -0,6 22 12 - - SW 1007,5 16 -
17.05.2019 17:00:00 25,0 -0,6 21 11 - - SW 1007,7 16 -
17.05.2019 16:00:00 25,0 0,0 22 12 - - SW 1008,0 16 -
17.05.2019 15:00:00 24,4 0,0 16 9 - - WSW 1008,6 16 -
17.05.2019 14:00:00 23,9 0,0 18 10 50 27 SSW 1009,1 16 -
17.05.2019 13:00:00 22,8 0,0 15 8 - - SW 1009,3 16 -
17.05.2019 12:00:00 22,2 1,1 21 11 - - W 1010,1 16 -
17.05.2019 11:00:00 20,6 1,7 18 10 - - SW 1010,6 16 -
17.05.2019 10:00:00 19,4 0,6 18 10 - - SW 1010,3 16 -
17.05.2019 09:00:00 17,2 0,0 11 6 - - SSE 1010,1 16 -
17.05.2019 08:00:00 16,1 0,6 8 4 - - SSE 1010,5 16 -
17.05.2019 07:00:00 14,4 1,1 9 5 - - SW 1010,2 16 -
17.05.2019 06:00:00 13,9 0,6 18 10 - - WSW 1009,4 16 -
17.05.2019 05:00:00 15,0 0,6 15 8 - - SW 1008,7 16 -
17.05.2019 04:00:00 15,6 -0,6 11 6 - - SSW 1007,9 16 -
17.05.2019 03:00:00 18,3 0,0 13 7 - - SW 1006,8 16 -
17.05.2019 02:00:00 18,9 1,1 31 17 - - W 1006,3 16 -
17.05.2019 01:00:00 20,6 5,0 26 14 - - WSW 1006,4 16 -
17.05.2019 00:00:00 22,2 7,2 34 18 - - WSW 1005,8 16 -
16.05.2019 23:00:00 23,3 7,2 31 17 - - WSW 1005,5 16 -
16.05.2019 22:00:00 24,4 7,8 22 12 - - WSW 1005,6 16 -
16.05.2019 21:00:00 25,6 7,8 29 16 - - W 1005,0 16 -
16.05.2019 20:00:00 26,1 6,7 31 17 52 28 WSW 1004,6 16 -
16.05.2019 19:00:00 27,8 5,6 41 22 57 31 WSW 1004,0 16 -
16.05.2019 18:00:00 29,4 3,3 37 20 52 28 WSW 1003,7 16 -
16.05.2019 17:00:00 31,1 3,3 34 18 59 32 WSW 1003,9 16 -
16.05.2019 16:00:00 31,7 2,8 35 19 54 29 SW 1003,9 16 -
16.05.2019 15:00:00 32,2 0,6 37 20 54 29 SW 1004,8 16 -
16.05.2019 14:00:00 31,1 1,7 26 14 52 28 SW 1005,4 16 -
16.05.2019 13:00:00 31,7 -1,1 34 18 63 34 WSW 1005,6 16 -
16.05.2019 12:00:00 30,6 -1,1 31 17 - - S 1006,3 16 -
16.05.2019 11:00:00 28,9 -1,1 31 17 - - SE 1006,4 16 -
16.05.2019 10:00:00 28,3 2,8 31 17 - - SSE 1006,4 16 -
16.05.2019 09:00:00 26,7 3,9 21 11 - - SE 1006,8 16 -
16.05.2019 08:00:00 24,4 3,3 13 7 - - SE 1006,8 16 -
16.05.2019 07:00:00 23,3 1,7 11 6 - - E 1007,1 16 -
16.05.2019 06:00:00 23,3 0,6 11 6 - - E 1006,7 16 -
16.05.2019 05:00:00 23,3 0,6 9 5 - - E 1006,1 16 -
16.05.2019 04:00:00 23,9 2,2 8 4 - - ESE 1006,0 16 -
16.05.2019 03:00:00 25,0 1,7 9 5 - - W 1006,0 16 -
16.05.2019 02:00:00 25,6 1,7 15 8 - - W 1006,2 16 -
16.05.2019 01:00:00 26,1 0,6 13 7 - - WSW 1006,6 16 -
16.05.2019 00:00:00 26,7 -1,1 0 0 - - N 1006,3 16 -
15.05.2019 23:00:00 27,8 -1,1 9 5 - - SW 1006,1 16 -
15.05.2019 22:00:00 29,4 -1,1 13 7 - - WSW 1006,4 16 -
15.05.2019 21:00:00 30,6 0,0 21 11 - - WSW 1005,7 16 -
15.05.2019 20:00:00 31,7 1,1 28 15 - - WSW 1005,2 16 -
15.05.2019 19:00:00 33,9 3,9 22 12 - - SW 1004,7 16 -
15.05.2019 18:00:00 33,9 5,0 9 5 - - W 1004,8 16 -
15.05.2019 17:00:00 34,4 5,6 18 10 - - W 1005,2 16 -
15.05.2019 16:00:00 34,4 5,0 0 0 - - N 1005,8 16 -
15.05.2019 15:00:00 34,4 5,0 5 3 - - - 1006,6 16 -
15.05.2019 14:00:00 34,4 5,0 16 9 - - S 1007,3 16 -
15.05.2019 13:00:00 32,8 5,0 5 3 - - NW 1007,9 16 -
15.05.2019 12:00:00 32,2 5,6 11 6 - - S 1008,6 16 -
15.05.2019 11:00:00 30,6 5,6 11 6 - - - 1009,3 16 -
15.05.2019 10:00:00 29,4 6,1 11 6 - - - 1009,5 16 -
15.05.2019 09:00:00 27,8 6,1 8 4 - - SE 1009,8 16 -
15.05.2019 08:00:00 26,7 6,1 5 3 - - ESE 1010,0 16 -
15.05.2019 07:00:00 23,9 6,1 15 8 - - ESE 1009,6 16 -

tt = temperature
td = dewpoint
ff = wind speed
fx = gusts
dd = wind direction
ppp = reduced air pressure
vv = visibility
rr = precipitation

Next stations